GW5738 Weather Reports


time (UTC)temp
C
wind
direction
speed
KPH
gust
KPH
rain 1hr
cm
rain 24hr
cm
rain mn
cm
humidity
%
barometer
mb
20260508104637 16 134 8.0 22.5 0.00 0.00 0.13 77 1011.8
20260508104552 17 165 22.5 27.4 0.00 0.00 0.13 77 1015.2
20260508104136 16 134 16.1 20.9 0.00 0.00 0.13 80 1011.9
20260508104052 16 153 14.5 22.5 0.00 0.00 0.13 78 1015.2
20260508103636 16 181 14.5 22.5 0.00 0.00 0.13 80 1012.0
20260508103551 16 152 16.1 20.9 0.00 0.00 0.13 80 1015.2
20260508103137 16 195 9.7 17.7 0.00 0.00 0.13 81 1012.0
20260508103053 16 143 14.5 22.5 0.00 0.00 0.13 81 1015.2
20260508102637 16 155 19.3 29.0 0.00 0.00 0.13 81 1011.9
20260508102552 16 171 14.5 22.5 0.00 0.00 0.13 81 1015.2
20260508102137 17 155 9.7 29.0 0.00 0.00 0.13 80 1012.0
20260508102052 17 153 20.9 29.0 0.00 0.00 0.13 80 1015.2
20260508101637 16 156 17.7 20.9 0.00 0.00 0.13 81 1011.8
20260508101552 16 130 9.7 19.3 0.00 0.00 0.13 82 1015.2
20260508101137 16 114 17.7 29.0 0.00 0.00 0.13 81 1011.6
20260508101052 16 139 9.7 24.1 0.00 0.00 0.13 81 1014.9
20260508100636 16 161 17.7 25.7 0.00 0.00 0.13 82 1011.7
20260508100554 16 118 17.7 22.5 0.00 0.00 0.13 81 1015.2
20260508100136 16 175 11.3 20.9 0.00 0.00 0.13 83 1011.8
20260508100052 16 200 11.3 22.5 0.00 0.00 0.13 82 1015.2
20260508095637 16 132 22.5 24.1 0.00 0.00 0.13 84 1012.0
20260508095553 16 158 14.5 20.9 0.00 0.00 0.13 83 1015.2
20260508095136 16 152 14.5 22.5 0.00 0.00 0.13 84 1012.1
20260508095052 16 117 16.1 25.7 0.00 0.00 0.13 84 1015.6
20260508094636 16 147 14.5 22.5 0.00 0.00 0.13 84 1012.1
20260508094554 16 143 12.9 27.4 0.00 0.00 0.13 85 1015.2
20260508094136 16 133 14.5 29.0 0.00 0.00 0.13 86 1011.9
20260508094053 16 114 17.7 22.5 0.00 0.00 0.13 85 1015.2
20260508093636 16 143 16.1 32.2 0.00 0.00 0.13 87 1011.8
20260508093552 16 167 25.7 27.4 0.00 0.00 0.13 86 1015.2
20260508093137 16 145 22.5 25.7 0.00 0.00 0.13 87 1011.7
20260508093054 16 141 12.9 24.1 0.00 0.00 0.13 86 1015.2
20260508092636 16 145 22.5 25.7 0.00 0.00 0.13 85 1011.8
20260508092554 16 167 22.5 29.0 0.00 0.00 0.13 85 1015.2
20260508092137 16 146 20.9 27.4 0.00 0.00 0.13 84 1011.8
20260508092052 16 145 22.5 27.4 0.00 0.00 0.13 84 1015.2
20260508091637 17 154 20.9 32.2 0.00 0.00 0.13 82 1011.6
20260508091552 17 147 9.7 25.7 0.00 0.00 0.13 82 1014.9
20260508091137 17 154 20.9 27.4 0.00 0.00 0.13 79 1011.5
20260508091053 17 177 24.1 29.0 0.00 0.00 0.13 78 1014.9
20260508090637 17 113 8.0 11.3 0.00 0.00 0.13 79 1011.4
20260508090552 17 136 9.7 11.3 0.00 0.00 0.13 79 1014.9
20260508090137 17 113 8.0 8.0 0.00 0.00 0.13 79 1011.4
20260508090054 17 88 3.2 11.3 0.00 0.00 0.13 79 1014.6
20260508085636 17 161 6.4 16.1 0.00 0.00 0.13 79 1011.4
20260508085554 17 151 6.4 16.1 0.00 0.00 0.13 78 1014.9
20260508085137 18 140 12.9 20.9 0.00 0.00 0.13 77 1011.4
20260508085057 18 165 6.4 14.5 0.00 0.00 0.13 77 1014.9
20260508084637 18 121 6.4 20.9 0.00 0.00 0.13 75 1011.2
20260508084554 18 127 14.5 20.9 0.00 0.00 0.13 76 1014.6
20260508084136 18 150 8.0 20.9 0.00 0.00 0.13 74 1011.2
20260508084051 18 143 6.4 16.1 0.00 0.00 0.13 75 1014.6
20260508083636 18 150 8.0 20.9 0.00 0.00 0.13 74 1011.2
20260508083550 18 157 12.9 14.5 0.00 0.00 0.13 75 1014.6
20260508083137 18 130 6.4 11.3 0.00 0.00 0.13 77 1011.1
20260508083052 18 120 8.0 17.7 0.00 0.00 0.13 76 1014.6
20260508082636 17 102 8.0 11.3 0.00 0.00 0.13 78 1011.3
20260508082550 17 204 4.8 14.5 0.00 0.00 0.13 77 1014.6
20260508082136 17 93 8.0 19.3 0.00 0.00 0.13 78 1011.0
20260508082052 17 104 6.4 14.5 0.00 0.00 0.13 78 1014.2
20260508081636 17 114 16.1 17.7 0.00 0.00 0.13 77 1011.1
20260508081551 17 94 14.5 16.1 0.00 0.00 0.13 77 1014.6
20260508081136 17 106 12.9 17.7 0.00 0.00 0.13 77 1010.9
20260508081052 17 111 16.1 17.7 0.00 0.00 0.13 77 1014.2
20260508080637 17 106 12.9 20.9 0.00 0.00 0.13 77 1011.0
20260508080552 17 108 9.7 20.9 0.00 0.00 0.13 77 1014.2
20260508080136 17 104 6.4 14.5 0.00 0.00 0.13 77 1010.7
20260508080052 17 100 11.3 16.1 0.00 0.00 0.13 77 1014.2
20260508075637 17 99 9.7 17.7 0.00 0.00 0.13 78 1010.9
20260508075552 17 140 11.3 17.7 0.00 0.00 0.13 78 1014.2
20260508075136 17 99 1.6 17.7 0.00 0.00 0.13 79 1011.0
20260508075050 17 71 11.3 12.9 0.00 0.00 0.13 79 1014.2
20260508074636 17 154 9.7 9.7 0.00 0.00 0.13 80 1010.9
20260508074550 17 98 3.2 9.7 0.00 0.00 0.13 80 1014.2
20260508074136 17 120 4.8 12.9 0.00 0.00 0.13 80 1010.8
20260508074051 17 96 1.6 14.5 0.00 0.00 0.13 80 1014.2
20260508073637 16 193 1.6 12.9 0.00 0.00 0.13 81 1010.9
20260508073552 17 121 6.4 12.9 0.00 0.00 0.13 81 1014.2
20260508073137 16 135 8.0 12.9 0.00 0.00 0.13 81 1010.8
20260508073052 16 163 9.7 14.5 0.00 0.00 0.13 81 1014.2
20260508072636 17 48 1.6 8.0 0.00 0.00 0.13 82 1011.0
20260508072552 17 122 17.7 20.9 0.00 0.00 0.13 82 1014.2
20260508072136 16 48 1.6 8.0 0.00 0.00 0.13 82 1010.8
20260508072052 16 120 6.4 8.0 0.00 0.00 0.13 82 1014.2
20260508071636 16 144 1.6 6.4 0.00 0.00 0.13 82 1011.1
20260508071550 16 86 4.8 6.4 0.00 0.00 0.13 82 1014.2
20260508071136 16 144 3.2 6.4 0.00 0.00 0.13 82 1010.9
20260508071053 16 35 3.2 9.7 0.00 0.00 0.13 81 1014.2
20260508070637 16 100 3.2 8.0 0.00 0.00 0.13 81 1010.8
20260508070554 16 205 3.2 8.0 0.00 0.00 0.13 81 1014.2
20260508070136 16 118 4.8 9.7 0.00 0.00 0.13 80 1010.6
20260508070050 16 79 4.8 11.3 0.00 0.00 0.13 80 1014.2
20260508065636 16 133 1.6 9.7 0.00 0.00 0.13 80 1011.0
20260508065551 17 116 4.8 12.9 0.00 0.00 0.13 80 1014.2
20260508065136 16 125 6.4 11.3 0.00 0.00 0.13 81 1010.8
20260508065052 16 294 0.0 12.9 0.00 0.00 0.13 80 1014.2
20260508064637 16 147 6.4 11.3 0.00 0.00 0.13 81 1010.8
20260508064555 16 104 11.3 11.3 0.00 0.00 0.13 82 1013.9
20260508064137 16 98 6.4 9.7 0.00 0.00 0.13 83 1010.6
20260508064054 16 104 4.8 6.4 0.00 0.00 0.13 83 1013.9
20260508063637 16 87 8.0 11.3 0.00 0.00 0.13 83 1010.7
20260508063555 16 72 6.4 6.4 0.00 0.00 0.13 83 1013.9
20260508063136 16 87 8.0 11.3 0.00 0.00 0.13 83 1010.7
20260508063052 16 92 6.4 9.7 0.00 0.00 0.13 82 1013.9
20260508062637 16 133 0.0 8.0 0.00 0.00 0.13 83 1010.7
20260508062553 16 70 8.0 8.0 0.00 0.00 0.13 82 1013.9
20260508062136 16 107 6.4 8.0 0.00 0.00 0.13 84 1010.6
20260508062054 16 100 4.8 8.0 0.00 0.00 0.13 83 1013.9
20260508061636 16 102 3.2 9.7 0.00 0.00 0.13 84 1010.6
20260508061553 16 122 4.8 8.0 0.00 0.00 0.13 84 1013.9
20260508061137 16 102 3.2 9.7 0.00 0.00 0.13 84 1010.4
20260508061052 16 97 4.8 11.3 0.00 0.00 0.13 84 1013.9
20260508060636 16 66 4.8 8.0 0.00 0.00 0.13 84 1010.4
20260508060553 16 108 4.8 12.9 0.00 0.00 0.13 84 1013.9
20260508060137 16 110 6.4 11.3 0.00 0.00 0.13 84 1010.6
20260508060053 16 73 3.2 8.0 0.00 0.00 0.13 84 1013.9
20260508055636 16 321 1.6 11.3 0.00 0.00 0.13 84 1010.4
20260508055552 16 51 6.4 8.0 0.00 0.00 0.13 85 1013.9
20260508055136 15 321 1.6 8.0 0.00 0.00 0.13 85 1010.2
20260508055052 15 318 3.2 8.0 0.00 0.00 0.13 85 1013.5
20260508054636 15 94 3.2 8.0 0.00 0.00 0.13 85 1010.1
20260508054554 15 74 4.8 8.0 0.00 0.00 0.13 85 1013.2
20260508054136 15 94 3.2 8.0 0.00 0.00 0.13 85 1010.0
20260508054052 15 224 3.2 9.7 0.00 0.00 0.13 85 1013.2
20260508053636 15 110 4.8 8.0 0.00 0.00 0.13 86 1009.9
20260508053552 15 100 6.4 8.0 0.00 0.00 0.13 86 1013.2
20260508053137 15 73 6.4 8.0 0.00 0.00 0.13 86 1009.8
20260508053052 15 115 4.8 9.7 0.00 0.00 0.13 86 1013.2
20260508052636 15 234 1.6 6.4 0.00 0.00 0.13 86 1009.8
20260508052552 15 100 4.8 6.4 0.00 0.00 0.13 86 1013.2
20260508052136 15 234 1.6 6.4 0.00 0.00 0.13 87 1009.8
20260508052054 15 122 1.6 11.3 0.00 0.00 0.13 86 1013.2
20260508051636 15 0 0.0 4.8 0.00 0.00 0.13 87 1009.7
20260508051552 15 113 3.2 6.4 0.00 0.00 0.13 87 1013.2
20260508051136 15 55 3.2 4.8 0.00 0.00 0.13 88 1009.5
20260508051052 14 114 6.4 6.4 0.00 0.00 0.13 88 1012.9
20260508050636 14 36 4.8 4.8 0.00 0.00 0.13 88 1009.7
20260508050551 14 50 4.8 4.8 0.00 0.00 0.13 88 1012.9
20260508050136 14 36 4.8 4.8 0.00 0.00 0.13 88 1009.6
20260508050054 14 81 4.8 8.0 0.00 0.00 0.13 88 1012.9
20260508045636 14 92 4.8 4.8 0.00 0.00 0.13 89 1009.5
20260508045550 14 88 1.6 6.4 0.00 0.00 0.13 89 1012.9
20260508045136 14 92 4.8 11.3 0.00 0.00 0.13 89 1009.3
20260508045050 14 100 8.0 11.3 0.00 0.00 0.13 89 1012.9
20260508044637 14 69 4.8 9.7 0.00 0.00 0.13 90 1009.4
20260508044551 13 60 6.4 6.4 0.00 0.00 0.13 89 1012.9
20260508044136 13 69 4.8 9.7 0.00 0.00 0.13 90 1009.4
20260508044050 13 80 3.2 8.0 0.00 0.00 0.13 90 1012.9
20260508043637 13 99 6.4 8.0 0.00 0.00 0.13 90 1009.4
20260508043551 13 62 4.8 9.7 0.00 0.00 0.13 90 1012.9
20260508043136 13 99 6.4 8.0 0.00 0.00 0.13 91 1009.5
20260508043052 13 47 1.6 8.0 0.00 0.00 0.13 91 1012.9
20260508042636 13 73 1.6 9.7 0.00 0.00 0.13 91 1009.4
20260508042551 13 88 4.8 8.0 0.00 0.00 0.13 91 1012.9
20260508042136 13 73 1.6 9.7 0.00 0.00 0.13 91 1009.4
20260508042051 13 83 4.8 6.4 0.00 0.00 0.13 91 1012.9
20260508041636 13 91 4.8 6.4 0.00 0.00 0.13 91 1009.3
20260508041552 13 63 4.8 8.0 0.00 0.00 0.13 91 1012.5
20260508041136 13 107 4.8 9.7 0.00 0.00 0.13 91 1009.4
20260508041054 13 130 0.0 8.0 0.00 0.00 0.13 91 1012.9
20260508040636 13 97 4.8 8.0 0.00 0.00 0.13 91 1009.4
20260508040552 13 89 4.8 9.7 0.00 0.00 0.13 91 1012.9
20260508040137 13 97 4.8 8.0 0.00 0.00 0.13 91 1009.2
20260508040053 13 108 4.8 8.0 0.00 0.00 0.13 91 1012.9
20260508035636 13 150 3.2 11.3 0.00 0.00 0.13 91 1009.4
20260508035554 13 107 4.8 8.0 0.00 0.00 0.13 91 1012.9
20260508035136 13 105 8.0 8.0 0.00 0.00 0.13 91 1009.4
20260508035051 13 103 6.4 9.7 0.00 0.00 0.13 91 1012.5
20260508034636 13 105 9.7 9.7 0.00 0.00 0.13 91 1009.2
20260508034550 13 86 3.2 9.7 0.00 0.00 0.13 91 1012.5
20260508034137 13 105 4.8 9.7 0.00 0.00 0.13 91 1009.3
20260508034050 13 121 4.8 9.7 0.00 0.00 0.13 91 1012.9
20260508033636 13 190 1.6 9.7 0.00 0.00 0.13 91 1009.2
20260508033552 13 86 4.8 8.0 0.00 0.00 0.13 91 1012.5
20260508033136 13 102 8.0 8.0 0.00 0.00 0.13 92 1009.1
20260508033052 13 77 3.2 9.7 0.00 0.00 0.13 91 1012.5
20260508032636 13 94 4.8 8.0 0.00 0.00 0.13 92 1009.2
20260508032552 13 103 8.0 8.0 0.00 0.00 0.13 92 1012.5
20260508032136 13 94 4.8 8.0 0.00 0.00 0.13 92 1009.2
20260508032059 13 96 4.8 8.0 0.00 0.00 0.13 92 1012.5
20260508031636 13 101 3.2 6.4 0.00 0.00 0.13 92 1009.2
20260508031551 13 76 4.8 8.0 0.00 0.00 0.13 92 1012.5
20260508031136 13 80 4.8 9.7 0.00 0.00 0.13 92 1009.1
20260508031051 13 110 0.0 6.4 0.00 0.00 0.13 92 1012.5
20260508030636 13 68 4.8 9.7 0.00 0.00 0.13 92 1008.9
20260508030552 13 81 4.8 9.7 0.00 0.00 0.13 92 1012.2
20260508030136 13 42 3.2 12.9 0.00 0.00 0.13 92 1009.1
20260508030054 13 75 4.8 12.9 0.00 0.00 0.13 92 1012.5
20260508025636 13 54 6.4 8.0 0.00 0.00 0.13 92 1008.8
20260508025551 13 47 8.0 9.7 0.00 0.00 0.13 92 1012.5
20260508025136 13 70 8.0 8.0 0.00 0.00 0.13 92 1009.0
20260508025050 13 84 4.8 8.0 0.00 0.00 0.13 92 1012.5
20260508024636 13 82 4.8 8.0 0.00 0.00 0.13 92 1008.8
20260508024550 13 59 4.8 8.0 0.00 0.00 0.13 92 1012.5
20260508024136 13 66 4.8 6.4 0.00 0.00 0.13 92 1008.9
20260508024050 13 64 4.8 8.0 0.00 0.00 0.13 92 1012.2
20260508023636 14 86 6.4 6.4 0.00 0.00 0.13 92 1008.9
20260508023552 14 40 4.8 6.4 0.00 0.00 0.13 92 1012.5
20260508023136 14 86 6.4 8.0 0.00 0.00 0.13 92 1008.6
20260508023054 14 53 4.8 11.3 0.00 0.00 0.13 92 1012.2
20260508022636 13 95 4.8 8.0 0.00 0.00 0.13 92 1009.0
20260508022552 13 69 4.8 9.7 0.00 0.00 0.13 92 1012.2
20260508022136 13 75 4.8 6.4 0.00 0.00 0.13 92 1009.0
20260508022050 13 79 4.8 8.0 0.00 0.00 0.13 92 1012.5
20260508021636 13 81 3.2 8.0 0.00 0.00 0.13 92 1008.7
20260508021553 13 99 3.2 6.4 0.00 0.00 0.13 92 1012.2
20260508021136 13 106 1.6 6.4 0.00 0.00 0.13 92 1008.7
20260508021051 13 98 3.2 8.0 0.00 0.00 0.13 92 1012.2
20260508020636 13 180 0.0 6.4 0.00 0.00 0.13 92 1008.9
20260508020550 13 73 1.6 6.4 0.00 0.00 0.13 92 1012.2
20260508020136 13 92 3.2 4.8 0.00 0.00 0.13 92 1008.8
20260508020051 13 107 6.4 6.4 0.00 0.00 0.13 92 1012.2
20260508015636 13 92 3.2 4.8 0.00 0.00 0.13 92 1009.0
20260508015550 13 112 1.6 4.8 0.00 0.00 0.13 92 1012.2
20260508015136 13 52 1.6 4.8 0.00 0.00 0.13 92 1009.0
20260508015050 13 116 1.6 4.8 0.00 0.00 0.13 92 1012.2
20260508014636 13 138 3.2 4.8 0.00 0.00 0.13 91 1009.0
20260508014550 13 165 4.8 4.8 0.00 0.00 0.13 92 1012.5
20260508014136 13 118 4.8 6.4 0.00 0.00 0.13 91 1009.0
20260508014050 13 122 6.4 6.4 0.00 0.00 0.13 91 1012.2
20260508013636 13 111 3.2 4.8 0.00 0.00 0.13 91 1009.0
20260508013551 13 127 4.8 6.4 0.00 0.00 0.13 91 1012.5
20260508013136 13 157 4.8 6.4 0.00 0.00 0.13 91 1009.1
20260508013051 13 174 4.8 6.4 0.00 0.00 0.13 91 1012.2
20260508012636 13 168 1.6 4.8 0.00 0.00 0.13 91 1009.1
20260508012551 13 181 3.2 6.4 0.00 0.00 0.13 91 1012.5
20260508012136 13 136 3.2 6.4 0.00 0.00 0.13 91 1009.2
20260508012050 13 159 1.6 6.4 0.00 0.00 0.13 91 1012.5
20260508011637 13 152 3.2 8.0 0.00 0.00 0.13 91 1009.0
20260508011554 13 79 1.6 8.0 0.00 0.00 0.13 91 1012.5
20260508011136 13 132 3.2 9.7 0.00 0.00 0.13 90 1009.4
20260508011050 13 163 3.2 6.4 0.00 0.00 0.13 90 1012.9
20260508010636 14 119 6.4 8.0 0.00 0.00 0.13 90 1009.4
20260508010551 14 116 4.8 9.7 0.00 0.00 0.13 90 1012.9
20260508010136 14 81 4.8 8.0 0.00 0.00 0.13 90 1009.4
20260508010051 14 110 3.2 8.0 0.00 0.00 0.13 90 1012.5
20260508005636 14 80 4.8 8.0 0.00 0.00 0.13 90 1009.6
20260508005550 14 121 1.6 4.8 0.00 0.00 0.13 90 1012.9
20260508005136 14 92 3.2 9.7 0.03 0.00 0.13 90 1009.5
20260508005052 14 68 4.8 8.0 0.00 0.00 0.13 90 1012.9
20260508004636 14 72 3.2 11.3 0.03 0.00 0.13 90 1009.4
20260508004551 14 101 6.4 9.7 0.00 0.00 0.13 90 1012.9
20260508004136 14 85 9.7 12.9 0.05 0.00 0.13 90 1009.5
20260508004053 14 85 4.8 11.3 0.00 0.00 0.13 90 1012.9
20260508003636 14 56 6.4 11.3 0.05 0.00 0.13 91 1009.5
20260508003550 14 82 8.0 12.9 0.00 0.00 0.13 90 1012.9
20260508003136 14 64 6.4 9.7 0.05 0.00 0.13 91 1009.7
20260508003053 14 50 9.7 11.3 0.00 0.00 0.13 91 1013.2
20260508002636 14 57 6.4 11.3 0.05 0.00 0.13 91 1009.7
20260508002550 14 27 3.2 14.5 0.00 0.00 0.13 91 1012.9
20260508002136 14 83 8.0 11.3 0.08 0.00 0.13 91 1009.8
20260508002051 14 66 6.4 11.3 0.00 0.00 0.13 91 1013.2
20260508001636 14 85 6.4 9.7 0.05 0.00 0.13 91 1009.8
20260508001554 14 101 9.7 11.3 0.00 0.00 0.13 91 1013.2
20260508001136 14 85 6.4 9.7 0.08 0.00 0.13 91 1010.2
20260508001053 14 60 4.8 9.7 0.00 0.00 0.13 91 1013.5
20260508000636 14 80 3.2 11.3 0.10 0.00 0.13 91 1010.1
20260508000553 14 89 8.0 11.3 0.00 0.00 0.13 91 1013.5
20260508000136 14 110 6.4 12.9 0.10 0.00 0.13 91 1010.4
20260508000053 14 95 4.8 12.9 0.00 0.00 0.13 91 1013.5
20260507235637 14 102 4.8 12.9 0.10 0.00 0.13 91 1010.1
20260507235557 14 111 6.4 11.3 0.13 0.00 0.13 91 1013.5
20260507235136 15 102 4.8 12.9 0.10 0.00 0.13 91 1010.3
20260507235055 15 186 1.6 12.9 0.13 0.00 0.13 91 1013.5
20260507234637 15 80 11.3 14.5 0.13 0.00 0.10 91 1010.4
20260507234551 15 71 11.3 12.9 0.00 0.00 0.10 91 1013.5
20260507234137 15 80 6.4 14.5 0.13 0.00 0.10 91 1010.3
20260507234053 15 98 8.0 14.5 0.00 0.00 0.10 91 1013.5
20260507233636 15 100 9.7 11.3 0.13 0.00 0.10 91 1010.4
20260507233551 15 96 11.3 14.5 0.00 0.00 0.10 91 1013.9
20260507233136 15 100 9.7 11.3 0.13 0.00 0.10 91 1010.5
20260507233050 15 71 6.4 16.1 0.18 0.00 0.10 91 1013.9
20260507232637 15 72 16.1 14.5 0.13 0.00 0.10 91 1010.5
20260507232551 15 91 11.3 22.5 0.18 0.00 0.10 91 1013.9
20260507232136 15 87 11.3 17.7 0.13 0.00 0.08 91 1010.6
20260507232051 15 68 4.8 14.5 0.00 0.00 0.08 91 1013.9
20260507231636 15 106 11.3 17.7 0.10 0.00 0.08 91 1010.7
20260507231552 15 98 8.0 14.5 0.00 0.00 0.08 91 1013.9
20260507231136 15 106 11.3 17.7 0.10 0.00 0.08 91 1010.7
20260507231049 15 75 9.7 14.5 0.13 0.00 0.08 91 1013.9
20260507230636 15 78 9.7 19.3 0.10 0.00 0.05 90 1010.7
20260507230553 15 81 6.4 19.3 0.13 0.00 0.08 90 1013.9
20260507230136 15 78 9.7 20.9 0.08 0.00 0.05 90 1010.8
20260507230051 15 98 12.9 20.9 0.00 0.00 0.05 90 1014.2
20260507225637 15 56 9.7 19.3 0.08 0.00 0.05 90 1010.7
20260507225550 15 75 8.0 19.3 0.18 0.00 0.05 90 1013.9
20260507225136 15 96 11.3 16.1 0.05 0.00 0.03 90 1010.7
20260507225051 15 95 12.9 16.1 0.18 0.00 0.05 90 1014.2
20260507224637 15 85 8.0 16.1 0.05 0.00 0.03 90 1010.8
20260507224555 15 60 8.0 14.5 0.13 0.00 0.03 90 1014.2
20260507224136 15 85 8.0 16.1 0.05 0.00 0.00 90 1010.8
20260507224051 15 78 6.4 19.3 0.00 0.00 0.00 90 1014.2
20260507223636 15 89 11.3 16.1 0.05 0.00 0.00 90 1010.7
20260507223550 15 96 12.9 17.7 0.00 0.00 0.00 90 1014.2
20260507223136 15 76 12.9 16.1 0.05 0.00 0.00 90 1010.9
20260507223051 16 83 8.0 14.5 0.00 0.00 0.00 90 1014.2
20260507222637 16 91 8.0 14.5 0.05 0.00 0.00 89 1011.0
20260507222553 16 105 11.3 19.3 0.00 0.00 0.00 90 1014.2
20260507222136 16 91 8.0 14.5 0.05 0.00 0.00 89 1010.8
20260507222051 16 98 11.3 16.1 0.00 0.00 0.00 89 1014.2
20260507221637 16 80 4.8 17.7 0.05 0.00 0.00 89 1011.0
20260507221550 16 84 6.4 11.3 0.00 0.00 0.00 89 1014.2
20260507221136 16 78 4.8 14.5 0.05 0.00 0.00 89 1010.8
20260507221050 16 96 12.9 14.5 0.00 0.00 0.00 89 1014.2
20260507220637 16 87 11.3 12.9 0.05 0.00 0.00 88 1010.7
20260507220552 16 130 8.0 17.7 0.00 0.00 0.00 88 1013.9
20260507220136 16 94 11.3 12.9 0.05 0.00 0.03 87 1010.7
20260507220050 16 96 9.7 14.5 0.00 0.00 0.03 87 1013.9
20260507215636 16 101 11.3 20.9 0.03 0.00 0.03 86 1010.8
20260507215550 16 106 8.0 19.3 0.18 0.00 0.03 86 1014.2
20260507215136 16 101 8.0 17.7 0.03 0.00 0.00 85 1010.9
20260507215052 16 87 6.4 22.5 0.00 0.00 0.00 85 1014.2
20260507214637 16 102 9.7 17.7 0.03 0.00 0.00 85 1010.8
20260507214550 16 79 12.9 19.3 0.00 0.00 0.00 85 1014.2
20260507214136 16 102 9.7 17.7 0.00 0.00 0.00 85 1010.5
20260507214052 16 96 11.3 24.1 0.00 0.00 0.00 84 1014.2
20260507213636 16 47 11.3 16.1 0.00 0.00 0.00 84 1010.8
20260507213553 16 69 4.8 14.5 0.00 0.00 0.00 84 1013.9
20260507213136 16 47 11.3 16.1 0.00 0.00 0.00 84 1010.7
20260507213052 16 69 4.8 9.7 0.00 0.00 0.00 83 1014.2
20260507212636 16 25 3.2 11.3 0.00 0.00 0.00 82 1010.9
20260507212551 16 73 9.7 17.7 0.00 0.00 0.00 83 1013.9
20260507212137 16 25 8.0 11.3 0.00 0.00 0.00 82 1010.5
20260507212053 16 54 8.0 11.3 0.00 0.00 0.00 82 1013.9
20260507211636 16 61 4.8 14.5 0.00 0.00 0.00 82 1010.6
20260507211550 16 81 8.0 14.5 0.00 0.00 0.00 82 1013.9
20260507211136 16 81 6.4 8.0 0.00 0.00 0.00 82 1010.5
20260507211052 16 49 6.4 11.3 0.00 0.00 0.00 82 1013.9
20260507210637 16 65 6.4 8.0 0.00 0.00 0.00 82 1010.5
20260507210551 16 73 3.2 9.7 0.00 0.00 0.00 81 1013.9
20260507210136 16 65 6.4 8.0 0.00 0.00 0.00 81 1010.4
20260507210051 16 65 6.4 8.0 0.00 0.00 0.00 81 1013.5
20260507205636 16 63 6.4 14.5 0.00 0.00 0.00 81 1010.2
20260507205553 16 94 6.4 8.0 0.00 0.00 0.00 81 1013.5
20260507205136 16 37 4.8 11.3 0.00 0.00 0.00 81 1010.2
20260507205053 16 92 3.2 14.5 0.00 0.00 0.00 81 1013.5
20260507204636 16 86 8.0 11.3 0.00 0.00 0.00 81 1010.0
20260507204550 16 69 4.8 9.7 0.00 0.00 0.00 81 1013.5
20260507204136 16 106 3.2 8.0 0.00 0.00 0.00 81 1010.2
20260507204055 16 66 3.2 11.3 0.00 0.00 0.00 81 1013.5
20260507203636 16 106 3.2 8.0 0.00 0.00 0.00 81 1010.1
20260507203552 16 79 3.2 8.0 0.00 0.00 0.00 81 1013.5
20260507203136 16 69 4.8 8.0 0.00 0.00 0.00 80 1010.2
20260507203052 16 85 4.8 14.5 0.00 0.00 0.00 80 1013.5
20260507202636 16 42 6.4 6.4 0.00 0.00 0.00 80 1010.2
20260507202553 16 73 6.4 8.0 0.00 0.00 0.00 80 1013.5
20260507202136 16 42 6.4 6.4 0.00 0.00 0.00 80 1010.2
20260507202052 16 55 4.8 6.4 0.00 0.00 0.00 80 1013.5
20260507201637 16 103 11.3 12.9 0.00 0.00 0.00 79 1010.2
20260507201551 16 83 6.4 8.0 0.00 0.00 0.00 79 1013.5
20260507201136 16 110 6.4 9.7 0.00 0.00 0.00 78 1010.3
20260507201051 16 80 6.4 9.7 0.00 0.00 0.00 79 1013.5
20260507200636 16 118 0.0 12.9 0.00 0.00 0.00 78 1010.0
20260507200553 16 93 4.8 9.7 0.00 0.00 0.00 78 1013.5
20260507200136 16 118 4.8 12.9 0.00 0.00 0.00 78 1010.1
20260507200053 16 81 4.8 11.3 0.00 0.00 0.00 78 1013.2
20260507195636 16 98 4.8 9.7 0.00 0.00 0.00 78 1009.8
20260507195552 16 98 6.4 9.7 0.00 0.00 0.00 78 1013.2
20260507195136 16 77 6.4 6.4 0.00 0.00 0.00 77 1009.9
20260507195052 16 108 4.8 8.0 0.00 0.00 0.00 77 1013.2
20260507194636 16 77 6.4 6.4 0.00 0.00 0.00 77 1009.8
20260507194554 16 92 3.2 4.8 0.00 0.00 0.00 77 1013.2
20260507194136 16 189 3.2 4.8 0.00 0.00 0.00 77 1009.8
20260507194053 16 109 3.2 11.3 0.00 0.00 0.00 77 1013.2
20260507193636 16 107 8.0 9.7 0.00 0.00 0.00 77 1009.6
20260507193552 16 132 4.8 9.7 0.00 0.00 0.00 77 1012.9
20260507193136 16 123 4.8 8.0 0.00 0.00 0.00 78 1009.5
20260507193054 16 111 8.0 11.3 0.00 0.00 0.00 78 1012.9
20260507192636 16 123 4.8 8.0 0.00 0.00 0.00 78 1009.4
20260507192553 16 64 1.6 9.7 0.00 0.00 0.00 78 1012.9
20260507192136 16 57 4.8 11.3 0.00 0.00 0.00 77 1009.2
20260507192051 16 85 6.4 11.3 0.00 0.00 0.00 77 1012.5
20260507191636 16 60 3.2 9.7 0.00 0.00 0.00 77 1009.3
20260507191550 16 61 4.8 8.0 0.00 0.00 0.00 77 1012.5
20260507191136 16 53 6.4 12.9 0.00 0.00 0.00 77 1009.1
20260507191051 16 58 4.8 12.9 0.00 0.00 0.00 77 1012.5
20260507190636 16 91 8.0 12.9 0.00 0.00 0.00 77 1008.9
20260507190551 16 47 6.4 12.9 0.00 0.00 0.00 77 1012.2
20260507190136 16 91 8.0 9.7 0.00 0.00 0.00 77 1008.8
20260507190051 16 79 8.0 9.7 0.00 0.00 0.00 77 1012.2
20260507185636 16 44 4.8 16.1 0.00 0.00 0.00 78 1008.8
20260507185552 16 79 8.0 14.5 0.00 0.00 0.00 78 1012.2
20260507185136 16 54 4.8 9.7 0.00 0.00 0.00 78 1008.6
20260507185052 16 80 12.9 16.1 0.00 0.00 0.00 78 1012.2
20260507184636 16 58 6.4 9.7 0.00 0.00 0.00 78 1008.9
20260507184551 16 79 6.4 14.5 0.00 0.00 0.00 77 1012.2
20260507184136 16 49 4.8 9.7 0.00 0.00 0.00 77 1009.0
20260507184051 16 70 9.7 12.9 0.00 0.00 0.00 77 1012.2
20260507183636 16 71 3.2 12.9 0.00 0.00 0.00 77 1008.9
20260507183553 16 78 4.8 11.3 0.00 0.00 0.00 77 1012.2
20260507183136 16 46 4.8 8.0 0.00 0.00 0.00 77 1008.9
20260507183053 16 73 6.4 12.9 0.00 0.00 0.00 77 1012.2
20260507182636 16 77 8.0 19.3 0.00 0.00 0.00 76 1008.8
20260507182551 16 52 6.4 16.1 0.00 0.00 0.00 77 1012.2
20260507182136 16 52 9.7 19.3 0.00 0.00 0.00 76 1008.7
20260507182050 16 92 8.0 19.3 0.00 0.00 0.00 76 1012.2
20260507181637 16 52 4.8 14.5 0.00 0.00 0.00 76 1008.7
20260507181550 16 56 6.4 14.5 0.00 0.00 0.00 76 1012.2
20260507181136 16 78 8.0 14.5 0.00 0.00 0.00 76 1008.7
20260507181052 16 80 16.1 17.7 0.00 0.00 0.00 76 1012.2
20260507180636 16 67 11.3 17.7 0.00 0.00 0.00 76 1008.7
20260507180554 16 72 9.7 14.5 0.00 0.00 0.00 76 1012.2
20260507180136 16 67 11.3 17.7 0.00 0.00 0.00 76 1008.7
20260507180053 16 66 8.0 16.1 0.00 0.00 0.00 76 1012.2
20260507175636 16 82 4.8 14.5 0.00 0.00 0.00 76 1008.7
20260507175555 16 37 4.8 16.1 0.00 0.00 0.00 76 1011.9
20260507175136 16 71 9.7 19.3 0.00 0.00 0.00 76 1008.7
20260507175052 16 74 6.4 17.7 0.00 0.00 0.00 76 1011.9
20260507174636 16 66 9.7 17.7 0.00 0.00 0.00 79 1008.7
20260507174552 16 75 9.7 17.7 0.00 0.00 0.00 77 1012.2
20260507174136 16 75 9.7 17.7 0.00 0.00 0.00 80 1008.6
20260507174052 16 42 8.0 12.9 0.00 0.00 0.00 79 1011.9
20260507173636 16 67 12.9 20.9 0.00 0.00 0.00 81 1008.5
20260507173551 16 64 6.4 17.7 0.00 0.00 0.00 80 1011.9
20260507173136 16 67 14.5 20.9 0.00 0.00 0.00 81 1008.9
20260507173053 16 81 8.0 17.7 0.00 0.00 0.00 81 1011.9
20260507172636 16 83 14.5 16.1 0.00 0.00 0.00 81 1008.9
20260507172552 16 76 11.3 16.1 0.00 0.00 0.00 81 1012.2
20260507172136 16 70 8.0 20.9 0.00 0.00 0.00 81 1008.8
20260507172052 16 59 8.0 16.1 0.00 0.00 0.00 81 1012.2
20260507171636 16 62 9.7 17.7 0.00 0.00 0.00 81 1008.8
20260507171552 16 40 11.3 20.9 0.00 0.00 0.00 81 1012.2
20260507171136 16 77 9.7 19.3 0.00 0.00 0.00 80 1008.7
20260507171051 16 73 6.4 14.5 0.00 0.00 0.00 81 1012.2
20260507170636 16 75 9.7 17.7 0.00 0.00 0.00 80 1008.8
20260507170554 16 68 14.5 14.5 0.00 0.00 0.00 81 1012.2
20260507170136 16 81 11.3 16.1 0.03 0.00 0.00 81 1008.9
20260507170053 16 72 9.7 16.1 0.00 0.00 0.00 80 1012.2
20260507165636 16 81 8.0 16.1 0.03 0.00 0.00 81 1008.7
20260507165553 16 84 9.7 12.9 0.00 0.00 0.00 81 1012.2
20260507165136 16 31 8.0 14.5 0.03 0.00 0.00 79 1008.8
20260507165052 16 60 8.0 16.1 0.00 0.00 0.00 80 1012.2
20260507164636 16 88 8.0 16.1 0.03 0.00 0.00 78 1008.8
20260507164552 16 68 11.3 14.5 0.00 0.00 0.00 79 1012.2
20260507164136 16 39 6.4 8.0 0.03 0.00 0.00 78 1008.5
20260507164054 16 74 9.7 16.1 0.00 0.00 0.00 78 1012.2
20260507163636 16 78 8.0 16.1 0.03 0.00 0.00 79 1008.8
20260507163552 16 52 4.8 11.3 0.00 0.00 0.00 78 1012.2
20260507163137 16 78 8.0 16.1 0.05 0.00 0.00 79 1009.0
20260507163052 16 82 8.0 16.1 0.00 0.00 0.00 79 1012.2
20260507162636 16 19 4.8 8.0 0.05 0.00 0.00 80 1008.8
20260507162550 16 80 4.8 11.3 0.00 0.00 0.00 80 1012.2
20260507162136 16 87 4.8 9.7 0.05 0.00 0.00 80 1008.8
20260507162053 16 57 4.8 8.0 0.00 0.00 0.00 80 1012.2
20260507161636 16 65 6.4 12.9 0.05 0.00 0.00 80 1008.7
20260507161552 16 78 3.2 9.7 0.00 0.00 0.00 80 1012.2
20260507161136 17 86 6.4 11.3 0.03 0.00 0.00 78 1008.9
20260507161056 17 112 8.0 14.5 0.00 0.00 0.00 79 1012.2
20260507160636 17 108 6.4 9.7 0.03 0.00 0.00 78 1008.8
20260507160553 17 95 9.7 12.9 0.00 0.00 0.00 78 1012.2
20260507160136 17 124 3.2 6.4 0.03 0.00 0.00 78 1009.0
20260507160052 17 107 9.7 9.7 0.00 0.00 0.00 78 1012.2
20260507155636 17 145 4.8 12.9 0.03 0.00 0.00 76 1008.7
20260507155553 17 68 4.8 8.0 0.00 0.00 0.00 78 1012.2
20260507155136 17 128 6.4 8.0 0.03 0.00 0.00 75 1008.8
20260507155053 17 108 11.3 12.9 0.00 0.00 0.00 76 1012.2
20260507154636 17 131 6.4 17.7 0.00 0.00 0.00 75 1008.9
20260507154552 17 163 3.2 8.0 0.00 0.00 0.00 75 1012.2
20260507154136 17 139 11.3 16.1 0.00 0.00 0.00 72 1008.8
20260507154053 18 126 11.3 14.5 0.00 0.00 0.00 73 1012.2
20260507153637 18 119 11.3 16.1 0.00 0.00 0.00 72 1008.7
20260507153553 18 125 6.4 16.1 0.00 0.00 0.00 71 1012.2
20260507153136 18 114 3.2 11.3 0.00 0.00 0.00 70 1008.8
20260507153053 18 134 8.0 11.3 0.00 0.00 0.00 69 1012.2
20260507152636 18 65 12.9 14.5 0.00 0.00 0.00 65 1008.8
20260507152552 18 108 6.4 14.5 0.00 0.00 0.00 66 1012.2
20260507152136 18 97 8.0 11.3 0.00 0.00 0.00 65 1009.0
20260507152052 18 79 6.4 17.7 0.00 0.00 0.00 65 1012.5
20260507151636 18 86 14.5 19.3 0.00 0.00 0.00 65 1008.9
20260507151553 18 79 9.7 14.5 0.00 0.00 0.00 65 1012.2
20260507151136 18 86 8.0 19.3 0.00 0.00 0.00 68 1008.9
20260507151052 18 61 8.0 20.9 0.00 0.00 0.00 70 1012.5
20260507150636 18 108 8.0 17.7 0.00 0.00 0.00 73 1008.8
20260507150553 18 114 9.7 17.7 0.00 0.00 0.00 73 1012.2
20260507150136 18 107 4.8 14.5 0.00 0.00 0.00 72 1008.9
20260507150052 18 91 8.0 20.9 0.00 0.00 0.00 72 1012.2
20260507145636 18 157 12.9 17.7 0.00 0.00 0.00 71 1008.8
20260507145552 18 136 9.7 19.3 0.00 0.00 0.00 71 1012.5
20260507145136 18 111 9.7 22.5 0.00 0.00 0.00 69 1008.7
20260507145053 18 96 11.3 16.1 0.00 0.00 0.00 70 1012.2
20260507144636 19 111 9.7 22.5 0.00 0.00 0.00 69 1008.9
20260507144552 19 105 9.7 20.9 0.00 0.00 0.00 69 1012.2
20260507144136 19 100 8.0 17.7 0.00 0.00 0.00 68 1008.9
20260507144053 19 143 11.3 22.5 0.00 0.00 0.00 68 1012.2
20260507143637 19 95 4.8 24.1 0.00 0.00 0.00 67 1008.8
20260507143553 20 108 17.7 24.1 0.00 0.00 0.00 67 1012.2
20260507143136 20 95 11.3 16.1 0.00 0.00 0.00 65 1008.8
20260507143053 20 121 9.7 19.3 0.00 0.00 0.00 64 1012.2
20260507142637 20 104 12.9 16.1 0.00 0.00 0.00 63 1009.0
20260507142555 20 133 6.4 16.1 0.00 0.00 0.00 63 1012.2
20260507142136 20 110 17.7 16.1 0.00 0.00 0.00 62 1008.7
20260507142053 20 117 9.7 16.1 0.00 0.00 0.00 62 1012.2
20260507141636 20 108 16.1 17.7 0.00 0.00 0.00 63 1008.8
20260507141551 20 106 14.5 25.7 0.00 0.00 0.00 64 1012.2
20260507141136 20 99 14.5 19.3 0.00 0.00 0.00 64 1009.0
20260507141053 20 120 4.8 17.7 0.00 0.00 0.00 64 1012.5
20260507140636 20 87 9.7 19.3 0.00 0.00 0.00 64 1009.0
20260507140552 20 104 14.5 19.3 0.00 0.00 0.00 64 1012.5
20260507140136 20 71 9.7 20.9 0.00 0.00 0.00 62 1008.9
20260507140053 20 98 9.7 20.9 0.00 0.00 0.00 62 1012.5
20260507135636 20 71 12.9 20.9 0.00 0.00 0.00 62 1008.8
20260507135552 20 85 11.3 20.9 0.00 0.00 0.00 62 1012.5
20260507135136 20 80 12.9 17.7 0.00 0.00 0.00 61 1009.3
20260507135053 20 76 9.7 17.7 0.00 0.00 0.00 61 1012.9
20260507134636 20 75 14.5 22.5 0.00 0.00 0.00 61 1009.1
20260507134552 20 79 8.0 24.1 0.00 0.00 0.00 61 1012.2
20260507134136 20 111 9.7 16.1 0.00 0.00 0.00 62 1008.8
20260507134052 20 46 6.4 17.7 0.00 0.00 0.00 62 1012.2
20260507133636 20 111 9.7 16.1 0.00 0.00 0.00 62 1009.0
20260507133552 20 79 12.9 17.7 0.00 0.00 0.00 62 1012.5
20260507133136 20 45 8.0 17.7 0.00 0.00 0.00 61 1009.2
20260507133050 20 104 6.4 11.3 0.00 0.00 0.00 61 1012.5
20260507132637 20 68 8.0 22.5 0.00 0.00 0.00 61 1009.2
20260507132551 20 109 8.0 14.5 0.00 0.00 0.00 61 1012.5
20260507132136 20 180 3.2 17.7 0.00 0.00 0.00 60 1009.3
20260507132057 20 76 3.2 22.5 0.00 0.00 0.00 61 1012.9
20260507131636 20 180 3.2 17.7 0.00 0.00 0.00 60 1009.1
20260507131553 20 67 3.2 19.3 0.00 0.00 0.00 60 1012.9
20260507131136 20 76 11.3 16.1 0.00 0.00 0.00 59 1009.5
20260507131054 20 113 3.2 16.1 0.00 0.00 0.00 59 1012.9
20260507130636 20 67 11.3 14.5 0.00 0.00 0.00 60 1009.5
20260507130553 20 92 14.5 14.5 0.00 0.00 0.00 60 1012.9
20260507130136 20 85 6.4 16.1 0.00 0.00 0.00 60 1009.4
20260507130052 20 102 11.3 19.3 0.00 0.00 0.00 59 1012.9
20260507125636 20 79 9.7 17.7 0.00 0.00 0.00 60 1009.3
20260507125555 20 83 8.0 20.9 0.00 0.00 0.00 60 1012.9
20260507125136 20 79 9.7 17.7 0.00 0.00 0.00 60 1009.4
20260507125052 20 82 12.9 17.7 0.00 0.00 0.00 60 1012.9
20260507124636 20 64 14.5 22.5 0.00 0.00 0.00 58 1009.3
20260507124552 20 84 19.3 25.7 0.00 0.00 0.00 59 1012.9
20260507124136 20 50 12.9 22.5 0.00 0.00 0.00 58 1009.3
20260507124051 20 118 8.0 20.9 0.00 0.00 0.00 58 1012.5
20260507123636 20 50 12.9 17.7 0.00 0.00 0.00 57 1009.3
20260507123552 20 44 14.5 17.7 0.00 0.00 0.00 57 1012.9
20260507123136 20 88 8.0 19.3 0.00 0.00 0.00 59 1009.3
20260507123052 20 42 12.9 19.3 0.00 0.00 0.00 59 1012.9
20260507122636 20 88 17.7 19.3 0.00 0.00 0.00 59 1009.4
20260507122553 20 98 9.7 19.3 0.00 0.00 0.00 59 1012.9
20260507122136 20 102 17.7 20.9 0.00 0.00 0.00 58 1009.6
20260507122053 20 82 11.3 20.9 0.00 0.00 0.00 58 1012.9
20260507121636 20 85 8.0 14.5 0.00 0.00 0.00 58 1009.8
20260507121552 20 70 8.0 19.3 0.00 0.00 0.00 58 1012.9
20260507121136 20 85 9.7 16.1 0.00 0.00 0.00 56 1009.6
20260507121051 20 89 12.9 20.9 0.00 0.00 0.00 57 1012.9
20260507120636 20 85 14.5 16.1 0.00 0.00 0.00 56 1009.6
20260507120550 20 34 3.2 16.1 0.00 0.00 0.00 56 1012.9
20260507120136 20 96 17.7 19.3 0.00 0.00 0.00 56 1009.6
20260507120052 20 61 14.5 20.9 0.00 0.00 0.00 57 1013.2
20260507115636 20 96 17.7 19.3 0.00 0.00 0.00 56 1009.7
20260507115553 20 69 11.3 20.9 0.00 0.00 0.00 56 1013.2
20260507115136 20 46 8.0 16.1 0.00 0.00 0.00 57 1010.0
20260507115050 20 71 9.7 27.4 0.00 0.00 0.00 57 1013.5
20260507114636 20 46 12.9 16.1 0.00 0.00 0.00 60 1009.9
20260507114552 20 68 9.7 22.5 0.00 0.00 0.00 60 1013.2
20260507114136 20 75 14.5 24.1 0.00 0.00 0.00 59 1010.1
20260507114053 20 66 4.8 25.7 0.00 0.00 0.00 59 1013.5
20260507113636 20 66 11.3 24.1 0.00 0.00 0.00 60 1010.1
20260507113553 20 86 16.1 24.1 0.00 0.00 0.00 59 1013.5
20260507113136 20 80 17.7 20.9 0.00 0.00 0.00 60 1010.2
20260507113053 19 137 6.4 24.1 0.00 0.00 0.00 60 1013.5
20260507112637 19 80 17.7 20.9 0.00 0.00 0.00 60 1010.1
20260507112552 19 94 14.5 17.7 0.00 0.00 0.00 60 1013.5
20260507112136 20 107 16.1 20.9 0.00 0.00 0.00 60 1010.5
20260507112052 20 44 11.3 22.5 0.00 0.00 0.00 59 1013.9
20260507111636 19 107 16.1 20.9 0.00 0.00 0.00 60 1010.3
20260507111553 19 89 8.0 16.1 0.00 0.00 0.00 61 1013.5
20260507111136 19 84 6.4 14.5 0.00 0.00 0.00 62 1010.5
20260507111053 19 80 4.8 20.9 0.00 0.00 0.00 61 1013.5
20260507110636 19 95 14.5 20.9 0.00 0.00 0.00 61 1010.5
20260507110556 19 54 9.7 19.3 0.00 0.00 0.00 61 1013.9
20260507110136 19 120 12.9 19.3 0.00 0.00 0.00 62 1010.5
20260507110052 19 101 11.3 20.9 0.00 0.00 0.00 61 1013.9
20260507105636 19 88 8.0 19.3 0.00 0.00 0.00 61 1010.4
20260507105554 19 124 14.5 20.9 0.00 0.00 0.00 62 1013.9
20260507105136 19 113 14.5 17.7 0.00 0.00 0.00 61 1010.7
20260507105052 19 78 16.1 19.3 0.00 0.00 0.00 61 1014.2